Vertical_Velocity
-0 -0 0 -1 -2 6 3 -5 -4 2 2 1 1 2 0 -0 -1 4 1 0 0 -1 -2 0 -1 -2 -1 -1 -2 -0 -1 -1 -1 -2 -2 -0 -1 -3 -1 -1 -1 -1 1 0 -2 -2 1 2 1
1 -2 -1 1 -1 3 1 -2 -4 -4 -2 2 4 2 -1 2 -1 -3 -0 1 0 -1 -2 -2 -3 1 1 -1 -2 -2 -1 -2 0 1 -2 -3 -2 -1 0 -1 -1 -1 -1 -1 0 0 -0 1 -0
1 -1 -2 1 1 0 -1 4 -2 -2 0 3 1 -2 3 -2 -1 1 -1 3 -0 1 -2 0 0 -2 -2 -2 -2 -1 -1 -0 0 1 -0 -1 1 -1 -2 -2 -1 0 0 -0 -1 -1 -2 2 1
1 -1 -1 3 1 -2 -2 -0 5 1 -3 1 1 3 2 1 1 0 1 -3 1 3 2 2 3 1 -1 -1 -0 -0 1 -0 -1 -0 -2 -1 -1 -2 0 -1 -1 -1 -1 -3 -1 -2 -3 1 1
2 -1 -1 1 0 -5 -1 2 4 4 0 1 -1 0 2 1 2 0 -0 2 1 2 2 2 2 2 2 1 1 1 -1 -0 0 -1 -1 -1 -1 -1 -2 -1 -1 -1 -0 -0 -2 -1 -2 -2 -1
1 0 1 -1 -3 -2 -3 3 4 3 1 0 0 -2 0 2 4 0 3 2 -0 -1 0 2 3 2 2 2 1 1 2 -0 0 -2 -2 -3 -1 0 -0 -1 -1 -2 -1 -1 -1 -2 -2 -3 -3
1 0 -0 -0 1 2 1 1 5 2 4 8 8 3 -2 0 2 1 -0 -0 -2 -1 -3 -1 1 0 0 -1 -0 -1 -1 -2 -2 -2 -2 -2 -2 -1 -1 0 0 -1 -2 -3 -2 -1 0 -0 -2
2 0 3 -3 3 2 1 -1 -6 -1 1 -0 0 0 -2 -4 -3 -1 0 -0 1 -1 1 2 1 1 1 1 -0 -2 -1 -2 -1 -1 -1 -3 -2 -1 -0 1 -1 0 0 -1 -1 -2 -1 -1 -1
0 3 -1 1 2 -0 2 1 1 -3 -1 1 1 1 -1 0 -0 -1 -1 -1 -0 2 2 1 1 0 -1 -1 -2 -2 -1 -1 -0 -1 0 -1 -3 -2 0 0 0 2 2 1 1 -1 -2 0 -0
1 1 -2 -0 -1 2 5 4 4 3 0 1 2 1 -0 -2 -3 -2 -1 -1 -2 -2 0 -2 -1 1 1 1 1 2 1 -0 1 1 0 -1 -1 -3 -3 -3 -1 -1 0 3 1 2 1 1 -0
1 0 1 -0 -2 1 1 3 2 4 6 3 2 1 0 -2 -1 -2 -4 -2 -1 -1 0 0 2 1 1 -1 0 1 1 0 -0 0 0 0 0 -0 1 -1 -2 -2 -2 -2 -1 1 2 3 1
-3 2 1 0 3 1 -0 -2 -1 1 2 4 5 2 0 0 -1 -1 -1 -1 -1 -2 -2 -4 -3 -3 -0 0 1 1 0 0 -0 -1 -2 -2 -2 -1 -4 -6 -4 -1 -3 -1 -1 -1 1 -0 1
4 1 -1 -1 1 2 3 0 -0 -1 2 3 3 2 3 1 0 -1 -2 -2 -4 -2 1 -0 -0 2 1 1 -0 -1 -2 -2 -3 -3 -2 -2 -1 -2 -2 1 2 2 0 -1 2 -2 -1 -0 2
-2 3 -2 -0 2 1 1 -0 3 6 3 4 3 4 3 2 2 1 1 -0 -0 1 1 -0 0 3 1 2 0 -1 -1 -0 1 0 -1 -1 -1 -1 -1 -1 -4 -4 -3 1 1 1 -1 -1 -2
-5 -1 0 -5 -4 1 1 8 9 -2 1 2 2 2 2 -0 -0 -0 -0 0 1 -1 -1 -2 -2 2 2 0 -0 -1 -0 -1 -1 1 -0 0 0 -0 1 0 -2 0 1 -0 -1 -0 1 2 1
-2 -1 3 -7 -2 -2 -3 8 2 5 4 -1 -2 -1 1 -1 2 2 1 3 1 -1 -2 -3 -4 -2 1 0 2 1 2 0 -1 -1 1 -1 -3 -1 -1 -2 -4 -3 1 2 1 -0 3 3 5
-1 -2 -2 0 -3 -5 -3 8 0 1 4 2 -1 4 4 0 1 -1 1 0 0 -1 -2 -3 -2 0 4 2 -1 -1 1 -0 -0 -2 -1 -0 -1 0 1 1 4 2 1 0 3 4 4 1 1
-3 -2 -0 6 -2 -4 -4 3 3 3 5 1 -1 1 2 3 5 4 2 2 1 -0 -4 -4 -2 0 0 4 2 0 -2 2 1 -1 -1 -2 -0 -2 -2 -0 1 -1 -0 1 2 1 5 4 6
-1 -3 -2 7 -2 -2 -1 0 -5 1 4 3 -0 -2 -1 3 3 1 -1 1 1 -0 -2 -2 -5 -2 2 1 -0 2 2 1 0 -1 -2 -1 -2 -1 -1 -2 -2 -4 -2 -3 -2 -3 -2 -4 4
-4 -5 3 1 3 -11 2 3 5 0 3 1 -4 -1 -2 3 3 3 1 1 -0 -2 -2 -4 -7 -6 -1 1 3 3 -0 -2 -2 0 0 -0 0 0 -1 -1 2 -1 2 -2 4 1 0 -2 2
-2 -5 3 -6 -1 -8 -5 -7 4 -1 1 -2 0 2 0 1 -0 -1 -1 0 2 -1 -1 -3 -0 -5 -1 -0 1 1 2 2 1 0 1 -0 2 3 2 -1 -1 -2 -2 -1 0 0 0 -1 1
-8 4 -5 -1 -4 -5 2 -36 1 7 7 1 3 2 1 0 -0 -1 2 1 0 -2 -1 -1 -4 -1 -2 -2 -2 1 -3 1 -1 -3 -0 3 0 1 -6 -7 -4 -5 -5 -5 -4 -4 -2 -4 -2
-8 3 -0 -4 -3 -6 8 -20 18 7 8 8 5 2 2 2 2 1 2 2 2 -2 -0 -2 -2 3 3 1 0 -3 -1 -1 1 -1 -3 -2 1 -4 -1 -5 -2 -4 -2 -2 -2 -4 -2 -1 -1
-0 -1 2 -1 0 -23 22 6 10 6 8 6 4 -1 -2 -0 2 0 -1 1 1 0 -1 1 0 3 -1 1 1 1 -1 -5 -5 -5 -3 -5 0 -5 -1 -4 -4 -2 -1 -4 -3 -2 -3 -4 -3
0 8 -1 -5 2 -16 3 -9 10 3 6 2 4 3 3 -0 1 3 0 1 6 5 2 -1 -2 2 2 -0 -2 -4 -2 -3 -4 -1 -4 -5 4 -1 -0 -2 -0 -1 -2 -1 0 -0 1 -0 1
-1 3 -10 3 2 -3 -1 -13 4 7 5 3 1 2 4 2 4 1 3 4 2 -0 -0 1 1 -0 1 -0 -2 -4 -2 -3 -1 -3 -2 -0 -2 -2 -3 -2 0 0 -1 -1 -1 -2 -3 -2 -2
17 -5 19 -4 -4 -7 3 1 4 9 5 1 2 -1 -1 2 1 4 3 -0 2 4 1 -2 -5 -4 -0 -3 -2 -3 -1 1 -2 -3 -3 -2 1 0 -3 -2 0 1 -1 -0 -1 -2 -1 -1 -2
1 5 4 5 -10 -3 -12 -11 3 4 4 4 1 0 1 1 2 2 2 1 3 2 -4 -5 -2 -2 -2 -0 -1 -1 -2 -1 0 -2 -3 -1 -2 -1 -1 -3 -1 1 3 1 0 -0 -0 -1 -2
6 -1 3 5 -2 -3 -11 -9 4 1 4 0 2 3 2 3 4 -0 -1 -4 -1 2 -0 -3 -0 -1 -2 1 -3 -0 -2 -1 -3 -2 -1 -3 -2 -1 0 1 0 0 -1 -1 -1 -1 -1 -0 0
4 -1 4 8 9 11 0 -21 5 0 1 2 -1 -2 0 1 2 -2 -1 1 0 -2 -5 -1 2 -1 -2 1 -4 -1 -3 -1 -2 -1 -3 -2 0 1 -1 -2 -1 -1 -1 -1 -1 -1 -1 -1 -1
Height
5848 5847 5848 5849 5851 5847 5846 5847 5849 5852 5853 5853 5854 5855 5855 5854 5854 5856 5854 5853 5852 5852 5851 5850 5849 5847 5846 5846 5845 5844 5843 5841 5839 5838 5836 5834 5833 5831 5831 5831 5830 5830 5829 5829 5828 5827 5826 5826 5825
5844 5844 5845 5845 5844 5841 5844 5844 5846 5848 5850 5851 5851 5851 5851 5850 5850 5850 5850 5849 5848 5848 5847 5846 5846 5844 5843 5842 5841 5841 5840 5838 5836 5835 5833 5832 5829 5828 5828 5827 5826 5826 5824 5824 5824 5823 5822 5822 5822
5841 5841 5841 5840 5839 5837 5840 5842 5842 5844 5845 5846 5847 5846 5847 5846 5845 5845 5845 5845 5845 5844 5843 5841 5840 5840 5840 5838 5838 5837 5836 5835 5833 5832 5830 5829 5828 5826 5825 5823 5822 5822 5821 5820 5819 5819 5818 5818 5818
5838 5838 5838 5836 5834 5833 5836 5838 5838 5838 5841 5842 5843 5842 5842 5841 5841 5841 5841 5841 5840 5839 5838 5837 5837 5837 5836 5835 5834 5834 5833 5831 5830 5829 5828 5827 5825 5823 5822 5820 5819 5818 5817 5817 5816 5816 5815 5814 5815
5835 5834 5833 5832 5831 5831 5832 5834 5835 5836 5838 5840 5841 5840 5839 5838 5836 5836 5836 5836 5835 5834 5833 5833 5833 5832 5831 5830 5829 5829 5829 5828 5827 5826 5825 5823 5822 5820 5818 5817 5816 5815 5815 5814 5813 5813 5812 5811 5810
5831 5830 5829 5828 5829 5828 5828 5829 5832 5835 5835 5836 5837 5837 5836 5834 5833 5832 5831 5830 5830 5829 5828 5829 5828 5827 5826 5825 5825 5825 5824 5823 5823 5822 5820 5818 5817 5815 5814 5814 5812 5811 5811 5810 5809 5809 5808 5807 5806
5826 5825 5825 5825 5826 5825 5826 5826 5829 5832 5832 5833 5834 5834 5834 5832 5829 5828 5826 5825 5824 5823 5823 5822 5822 5821 5821 5821 5819 5819 5818 5817 5816 5815 5813 5812 5811 5810 5810 5809 5808 5807 5806 5805 5804 5804 5803 5802 5802
5821 5821 5820 5822 5822 5823 5823 5823 5825 5826 5828 5828 5828 5828 5829 5827 5827 5825 5822 5820 5819 5818 5818 5817 5816 5816 5816 5815 5814 5814 5814 5813 5811 5809 5807 5806 5805 5805 5804 5803 5803 5802 5801 5800 5799 5798 5797 5796 5796
5816 5817 5817 5817 5817 5818 5818 5820 5821 5822 5822 5822 5823 5824 5823 5822 5821 5820 5818 5816 5815 5814 5812 5811 5810 5809 5809 5808 5807 5807 5806 5805 5804 5804 5803 5802 5801 5800 5799 5798 5797 5797 5796 5794 5793 5792 5791 5790 5790
5811 5812 5812 5812 5812 5811 5814 5816 5817 5818 5818 5819 5819 5819 5818 5816 5816 5814 5813 5812 5810 5808 5807 5806 5805 5804 5804 5803 5802 5801 5800 5799 5798 5797 5796 5796 5795 5794 5793 5793 5792 5792 5791 5790 5788 5787 5785 5784 5783
5807 5807 5807 5807 5806 5806 5808 5809 5811 5811 5813 5813 5812 5812 5811 5810 5809 5808 5806 5804 5803 5804 5804 5803 5802 5801 5800 5799 5798 5797 5795 5793 5792 5791 5789 5788 5787 5787 5786 5786 5785 5785 5785 5783 5782 5781 5779 5778 5777
5803 5804 5804 5803 5803 5803 5803 5803 5804 5806 5807 5807 5807 5806 5805 5805 5803 5801 5799 5799 5797 5797 5796 5796 5795 5794 5794 5792 5790 5789 5787 5786 5784 5783 5782 5781 5781 5780 5779 5778 5778 5777 5776 5775 5775 5774 5773 5772 5771
5800 5801 5800 5799 5799 5799 5798 5798 5799 5801 5800 5802 5801 5800 5800 5799 5797 5796 5794 5792 5791 5790 5789 5788 5787 5786 5785 5784 5783 5781 5779 5777 5775 5774 5773 5772 5771 5770 5770 5770 5769 5767 5767 5767 5765 5765 5764 5764 5763
5796 5797 5796 5796 5794 5793 5792 5793 5794 5797 5795 5794 5792 5793 5793 5792 5791 5790 5788 5786 5785 5783 5782 5780 5779 5778 5777 5775 5774 5773 5770 5768 5766 5765 5764 5764 5764 5763 5761 5759 5759 5759 5758 5757 5756 5757 5755 5754 5754
5792 5794 5793 5792 5790 5789 5787 5791 5792 5790 5790 5788 5787 5787 5787 5786 5785 5784 5782 5781 5780 5778 5777 5775 5773 5771 5769 5767 5764 5763 5761 5760 5758 5756 5754 5752 5751 5751 5750 5749 5748 5745 5746 5746 5745 5745 5745 5744 5744
5786 5786 5787 5785 5785 5785 5782 5786 5784 5783 5783 5783 5782 5782 5780 5778 5777 5775 5774 5773 5772 5770 5768 5766 5764 5763 5761 5758 5755 5752 5751 5749 5747 5745 5743 5742 5741 5740 5739 5738 5737 5735 5734 5734 5734 5734 5733 5732 5732
5779 5780 5782 5782 5777 5777 5776 5777 5778 5775 5774 5773 5772 5773 5773 5771 5769 5768 5766 5765 5762 5760 5757 5755 5754 5752 5749 5747 5745 5743 5741 5740 5738 5735 5732 5729 5728 5726 5725 5723 5722 5722 5721 5721 5719 5720 5720 5720 5720
5772 5773 5775 5777 5774 5769 5770 5769 5768 5768 5767 5766 5765 5763 5762 5761 5760 5759 5757 5755 5753 5750 5747 5745 5743 5741 5738 5735 5734 5733 5731 5728 5726 5723 5720 5718 5715 5713 5712 5711 5710 5709 5709 5707 5706 5706 5705 5706 5706
5765 5765 5765 5769 5767 5765 5765 5761 5760 5758 5758 5757 5757 5755 5752 5750 5749 5749 5747 5745 5745 5742 5739 5735 5732 5730 5727 5725 5725 5724 5721 5718 5715 5712 5709 5705 5703 5700 5699 5698 5697 5696 5695 5695 5694 5693 5692 5693 5692
5757 5757 5758 5758 5758 5755 5756 5756 5753 5751 5748 5748 5746 5745 5743 5741 5740 5738 5737 5735 5735 5732 5729 5724 5719 5717 5717 5716 5714 5711 5709 5707 5703 5699 5696 5693 5689 5686 5685 5684 5683 5681 5679 5678 5676 5676 5676 5677 5678
5746 5746 5747 5746 5745 5745 5744 5746 5745 5742 5741 5738 5735 5733 5731 5729 5728 5728 5726 5724 5723 5720 5716 5713 5709 5706 5705 5704 5701 5699 5697 5694 5691 5687 5683 5680 5676 5673 5671 5668 5666 5665 5663 5662 5661 5659 5659 5659 5659
5736 5736 5732 5732 5731 5732 5733 5731 5735 5734 5732 5728 5726 5723 5721 5719 5717 5715 5715 5713 5710 5707 5705 5700 5698 5696 5695 5691 5689 5686 5684 5680 5678 5675 5671 5667 5664 5660 5656 5654 5651 5649 5647 5645 5644 5643 5642 5642 5642
5724 5722 5721 5718 5717 5717 5719 5717 5724 5722 5720 5717 5716 5714 5711 5709 5706 5704 5702 5699 5696 5694 5691 5689 5687 5685 5682 5679 5677 5675 5672 5669 5666 5663 5660 5656 5652 5648 5644 5641 5637 5636 5633 5630 5627 5626 5625 5625 5625
5709 5707 5705 5705 5704 5704 5706 5706 5713 5709 5706 5703 5702 5701 5700 5699 5696 5693 5691 5688 5686 5684 5682 5680 5677 5674 5670 5668 5665 5663 5661 5658 5655 5651 5647 5643 5639 5637 5633 5630 5626 5622 5619 5616 5614 5612 5610 5609 5608
5698 5696 5693 5691 5690 5693 5695 5693 5698 5695 5695 5692 5691 5689 5687 5687 5685 5683 5681 5679 5678 5675 5672 5670 5667 5664 5661 5658 5654 5652 5648 5644 5641 5638 5634 5631 5627 5623 5620 5616 5613 5609 5606 5603 5600 5599 5596 5595 5593
5685 5682 5681 5676 5679 5681 5681 5681 5683 5684 5684 5681 5679 5678 5677 5677 5676 5674 5672 5669 5668 5666 5662 5658 5656 5653 5650 5647 5643 5640 5636 5633 5629 5627 5624 5621 5617 5613 5609 5605 5601 5597 5593 5589 5587 5584 5581 5579 5578
5676 5671 5674 5666 5667 5666 5668 5671 5672 5671 5672 5669 5668 5667 5666 5665 5663 5662 5660 5659 5656 5653 5650 5648 5647 5644 5639 5635 5632 5629 5626 5624 5621 5618 5614 5611 5608 5604 5599 5594 5591 5586 5582 5578 5574 5571 5568 5566 5563
5662 5662 5660 5655 5654 5655 5657 5659 5659 5660 5661 5661 5659 5657 5656 5654 5652 5650 5649 5648 5644 5642 5639 5636 5633 5630 5627 5624 5621 5619 5617 5615 5612 5609 5607 5603 5598 5594 5590 5586 5581 5576 5571 5566 5562 5559 5555 5553 5551
5650 5648 5647 5646 5645 5644 5646 5650 5650 5648 5648 5648 5648 5647 5646 5643 5641 5640 5639 5637 5633 5630 5628 5626 5623 5620 5618 5615 5613 5611 5609 5607 5604 5602 5599 5594 5591 5588 5583 5578 5573 5568 5562 5557 5553 5549 5546 5543 5541
5638 5636 5636 5637 5638 5638 5636 5641 5638 5638 5639 5637 5637 5638 5636 5634 5632 5631 5629 5626 5623 5621 5619 5616 5614 5612 5609 5607 5605 5603 5601 5599 5597 5594 5591 5588 5585 5581 5577 5573 5568 5563 5557 5552 5548 5544 5541 5539 5537